Presure
233 235 179 249 179 120 271 272 212 316 235 341 250 117 125 115 230 255 234 239 213 158 239 235 197 203 245 252 172 251 144 208 162 137 118 180 127 162 132 130 132 133 157 177 166 173 162
224 161 253 212 108 254 257 282 308 313 312 289 164 122 125 127 249 237 236 225 221 138 229 234 236 158 229 257 147 241 239 228 177 122 152 126 127 127 128 153 131 131 181 142 165 147 206
219 225 277 241 272 247 125 268 292 285 129 278 288 124 128 120 229 233 234 227 227 183 232 241 231 211 158 243 255 254 120 152 247 155 123 128 134 130 133 133 152 188 176 116 127 175 195
218 236 108 250 274 236 298 289 276 247 255 254 241 125 219 122 236 245 240 167 229 225 228 227 232 240 243 240 246 247 244 240 124 130 129 131 153 250 140 258 133 214 145 170 199 188 237
227 273 262 127 275 252 233 244 250 250 238 232 223 224 225 221 225 225 227 133 231 211 231 191 142 172 141 126 138 221 238 234 182 236 198 176 223 250 235 134 243 190 239 247 243 253 223
240 272 245 255 236 249 255 254 243 235 233 203 223 160 199 229 224 226 174 234 225 229 225 218 224 228 141 148 153 153 223 227 226 226 209 226 228 178 144 234 199 225 163 225 242 218 228
276 247 255 246 242 232 240 226 230 219 219 219 218 111 185 229 239 213 228 222 211 210 213 147 225 224 228 226 223 223 224 223 219 221 226 221 137 222 133 220 134 229 219 238 222 208 219
280 252 230 243 242 240 222 230 235 213 239 207 239 238 232 227 223 218 216 189 211 214 212 215 219 222 219 215 214 214 215 218 235 241 139 231 237 147 199 150 220 223 204 215 210 217 219
260 224 243 220 234 208 229 159 97 148 219 223 221 212 201 215 159 181 191 204 207 209 218 221 215 212 213 213 217 216 216 213 157 176 227 133 205 190 215 223 221 208 208 206 211 199 217
124 232 240 224 221 222 97 225 224 212 177 216 133 202 204 206 204 204 208 208 222 219 213 206 208 212 211 212 211 211 154 143 159 242 241 214 186 225 139 213 212 208 205 206 188 218 215
122 235 171 222 204 218 204 217 216 206 199 195 119 198 207 211 203 206 219 224 216 212 210 208 207 214 211 131 205 145 140 137 227 142 146 242 223 224 217 218 220 205 206 197 212 222 209
230 238 226 225 206 216 215 191 197 202 206 200 105 205 212 202 231 226 217 215 208 206 202 209 201 203 200 210 150 210 222 222 221 225 220 232 235 220 219 218 211 209 194 200 219 206 197
234 220 220 222 218 197 199 204 187 208 195 207 201 201 199 229 219 215 208 204 202 203 204 196 198 198 206 206 215 218 219 217 231 256 249 237 243 237 220 219 218 216 213 198 188 184 196
236 219 227 206 203 205 186 193 207 202 192 187 201 226 197 216 209 206 205 202 201 197 197 199 198 203 212 205 213 214 207 218 252 228 234 256 241 238 249 226 219 218 202 206 181 183 188
217 212 200 216 200 184 207 198 196 195 199 198 211 224 219 211 137 204 202 196 196 196 191 193 198 195 198 214 224 212 214 235 249 233 238 251 243 238 247 236 230 192 192 187 186 187 189
211 214 209 208 192 208 198 192 196 194 205 208 213 218 207 206 201 201 197 193 196 197 194 200 195 186 200 222 205 203 213 200 230 219 217 227 249 221 217 246 196 189 195 189 190 186 185
211 218 206 209 209 206 194 183 201 192 201 207 208 210 202 203 196 196 196 196 195 191 198 196 183 180 198 198 196 200 204 201 206 205 213 211 201 197 198 196 194 194 195 194 175 193 178
198 216 230 213 203 202 195 193 195 196 192 195 204 188 200 197 192 195 197 201 194 185 205 192 181 196 196 195 201 200 202 194 196 195 188 195 191 190 204 210 204 211 201 186 187 167 182
228 209 217 205 208 206 198 193 193 196 187 183 200 198 198 198 196 195 196 190 194 187 199 185 183 191 195 189 194 191 188 201 188 191 192 186 185 184 185 185 193 174 180 173 174 177 179
223 192 213 203 207 194 199 196 196 193 191 179 192 197 211 203 196 194 197 194 189 204 199 190 188 189 189 189 188 188 138 189 184 191 185 198 199 192 174 174 182 185 176 193 169 173 175
196 223 201 198 206 202 200 196 207 195 192 202 197 192 215 214 200 190 190 190 183 195 198 193 188 187 189 188 188 186 189 186 186 186 172 185 182 188 186 182 190 182 187 179 185 187 184
195 199 226 209 210 212 204 197 208 200 198 187 198 197 216 211 202 188 185 188 183 195 198 192 196 189 189 188 185 179 190 192 187 184 184 179 179 185 182 187 184 184 193 146 185 190 182
228 197 212 190 207 205 210 203 201 197 201 202 201 202 201 211 204 196 189 188 180 180 193 191 192 190 191 179 184 187 180 182 190 189 189 185 182 179 188 186 186 190 189 188 177 178 176
196 175 206 222 196 212 207 203 203 201 194 192 196 193 194 203 213 198 189 180 180 181 187 189 194 195 191 187 194 193 196 201 190 195 199 198 205 193 189 193 189 186 185 179 179 182 185
180 197 197 202 218 204 208 207 202 203 196 197 197 201 191 197 207 213 180 181 176 184 188 186 187 188 188 187 186 186 200 173 199 194 186 199 177 175 173 177 178 181 169 183 183 189 171
201 175 205 188 183 216 200 208 197 205 201 192 204 197 201 200 202 213 208 187 180 188 189 192 187 198 196 183 186 188 197 196 199 185 193 179 179 180 183 191 198 198 186 190 180 185 179
193 200 186 200 189 182 214 205 211 191 205 211 219 203 200 202 210 216 201 185 187 180 194 196 194 181 174 198 202 199 204 205 195 193 189 206 193 192 185 189 191 186 177 190 192 195 166
186 183 200 188 200 197 193 208 210 221 210 220 212 208 202 207 216 197 188 186 187 190 184 182 184 185 196 192 176 183 185 196 197 171 178 177 183 184 190 188 182 179 188 167 199 168 175
191 185 191 205 186 195 204 200 211 195 216 211 220 215 213 183 206 193 189 185 184 188 168 190 197 187 199 195 210 206 183 177 174 177 182 186 188 183 193 186 193 198 189 198 191 193 116
Wind_Speed
29 23 19 25 15 34 6 10 16 11 20 39 25 36 34 34 33 31 35 33 34 35 37 41 36 34 45 42 34 53 42 88 60 54 42 82 49 75 52 57 59 61 72 92 96 101 85
27 18 23 27 32 15 9 8 21 33 36 31 28 35 34 29 30 33 34 39 38 38 36 33 33 40 45 24 38 50 59 92 79 41 68 47 50 53 56 66 59 60 100 61 86 76 98
23 21 15 13 15 11 43 17 33 33 32 36 40 34 34 31 30 29 29 30 29 30 25 20 22 44 32 15 9 13 41 35 24 45 45 50 52 54 56 58 54 98 83 51 61 87 103
23 18 29 13 14 10 38 40 38 28 32 35 32 35 28 31 26 25 25 35 23 24 23 22 16 8 8 11 6 8 10 20 44 47 47 50 49 35 56 36 55 75 60 62 75 82 41
20 16 17 18 26 26 17 26 31 35 31 32 29 29 29 28 27 27 25 30 20 16 14 21 35 27 34 37 37 16 14 18 30 22 37 43 33 27 32 52 22 37 29 25 25 17 35
16 17 19 26 22 30 34 33 31 32 31 28 31 27 24 25 25 23 20 20 19 16 15 15 10 8 38 36 37 39 16 19 22 24 30 23 25 37 48 24 35 29 48 29 19 31 23
18 24 30 31 30 28 32 26 29 29 29 29 29 29 23 22 24 23 22 20 19 17 13 36 7 8 10 11 13 15 15 17 20 22 22 24 43 24 46 27 53 19 26 16 24 31 28
32 35 24 39 34 35 28 32 33 28 33 26 31 29 29 27 25 22 19 16 16 14 13 10 9 12 12 13 14 16 16 18 15 16 40 22 19 41 32 48 27 23 28 27 29 26 25
41 34 39 30 33 24 36 21 21 22 30 32 31 25 21 24 20 27 21 20 18 15 11 12 12 13 13 13 13 14 15 16 34 31 20 45 29 34 26 22 22 26 27 27 30 29 23
31 35 43 32 35 37 21 33 34 31 24 28 18 25 23 22 23 24 21 17 15 16 14 13 13 12 12 11 13 15 33 40 37 14 16 26 34 23 49 26 25 25 25 27 30 26 21
41 40 25 36 26 39 30 31 29 28 27 27 28 27 23 26 27 24 18 18 17 16 13 12 11 9 10 32 14 40 40 41 17 44 44 19 25 25 29 28 27 26 24 23 27 21 21
42 47 41 42 33 39 36 29 28 26 24 27 26 24 21 25 20 21 19 17 15 12 12 10 9 10 12 13 37 15 14 16 18 19 21 23 24 27 32 31 29 26 21 24 24 22 26
47 39 44 41 43 33 32 28 32 26 32 26 28 28 28 20 22 20 18 14 14 14 12 14 12 12 11 11 12 13 14 15 16 16 21 24 25 28 31 34 32 28 24 21 28 30 25
50 44 50 35 41 36 32 35 30 30 33 33 27 19 26 21 20 18 18 17 15 15 13 12 11 11 11 10 13 13 16 17 13 15 16 19 22 24 27 29 32 28 14 18 29 31 32
42 44 40 45 42 33 34 33 34 32 30 29 21 21 23 23 32 20 19 19 17 15 15 12 11 12 11 12 11 14 16 15 13 13 13 14 17 18 20 22 27 23 19 24 26 28 30
42 49 47 42 40 39 39 36 32 31 22 19 19 23 22 22 22 20 20 20 16 14 12 12 12 16 12 12 13 15 15 17 12 11 12 13 13 14 17 18 19 24 21 25 26 28 33
43 53 45 48 46 45 42 37 34 33 23 18 19 22 23 23 24 22 21 18 16 14 13 13 18 20 13 12 15 16 17 18 14 13 13 14 15 17 18 20 22 23 24 26 28 30 29
43 49 56 52 49 46 45 39 38 36 30 25 21 29 24 26 26 22 21 20 17 16 16 18 21 15 14 15 15 15 16 20 19 16 17 17 18 18 19 17 21 21 21 21 26 37 35
54 43 54 48 49 50 45 42 38 33 34 33 27 26 29 30 27 24 23 21 19 17 19 22 23 15 16 16 16 16 18 18 22 22 21 21 24 27 27 24 27 24 21 25 33 35 42
48 45 51 46 54 44 44 44 41 37 36 35 33 30 29 33 31 27 26 23 19 21 20 22 22 19 20 21 21 21 39 23 23 23 24 25 25 28 32 28 34 33 27 27 38 39 41
47 53 44 48 52 50 47 43 42 41 38 34 34 32 29 34 35 30 28 25 22 21 21 21 23 24 25 26 25 27 28 27 27 29 30 27 27 31 33 36 37 42 36 32 36 39 41
50 48 56 50 52 53 50 45 44 41 43 39 36 33 28 32 36 34 29 28 25 25 24 24 24 26 27 29 30 29 34 36 34 35 34 34 36 37 41 37 39 46 43 31 43 44 49
52 48 50 45 49 49 51 48 45 43 43 42 37 35 34 33 38 38 34 31 27 28 26 25 27 29 31 32 34 35 34 37 40 40 38 36 37 39 47 46 46 48 46 47 50 54 57
53 46 47 54 45 51 49 48 46 46 43 41 41 39 38 38 39 40 34 31 30 32 30 29 30 32 34 36 38 39 41 43 43 45 45 42 43 42 44 45 50 55 50 51 55 62 64
47 53 50 48 55 48 47 48 47 49 45 45 44 44 41 41 41 43 34 34 37 36 35 34 33 34 36 37 39 41 45 40 45 49 45 43 37 41 44 46 51 58 56 58 60 65 65
59 42 51 49 49 56 47 51 46 49 47 45 50 46 45 44 43 46 46 39 38 38 39 39 38 39 40 39 41 44 46 46 46 47 46 41 44 46 45 48 52 56 58 60 61 66 70
59 59 51 54 53 48 55 53 56 46 50 54 56 50 45 45 47 48 45 41 41 41 42 41 40 40 34 48 49 47 49 49 49 49 48 53 49 52 50 52 58 58 60 66 66 70 59
61 55 56 53 52 52 52 51 52 58 50 55 54 53 48 47 50 44 42 42 42 43 42 42 44 43 47 44 31 41 39 49 53 50 49 53 51 54 55 57 62 63 69 59 76 61 69
67 60 59 57 54 55 52 53 50 50 53 49 57 55 53 45 48 44 42 43 45 46 43 49 51 45 52 48 53 50 47 50 50 53 57 64 59 57 57 65 69 72 70 77 76 80 43
Wind_Direction
272 280 265 287 243 248 212 241 249 189 209 135 179 240 238 247 196 176 194 193 208 234 212 218 232 237 234 238 251 242 248 245 247 252 261 258 261 265 264 269 269 272 278 278 282 279 284
268 249 286 251 257 220 180 176 139 135 130 138 219 236 243 250 170 180 184 201 206 238 215 220 225 241 237 248 244 242 244 246 250 260 255 264 264 269 271 268 270 274 272 277 279 282 278
264 264 265 228 187 220 259 154 140 134 229 130 126 235 242 242 180 180 183 196 203 222 207 209 219 236 236 248 269 261 254 262 263 261 265 264 261 267 269 272 270 277 270 286 285 279 281
253 270 250 214 169 212 143 134 133 147 138 129 148 236 173 240 169 167 166 214 185 198 200 207 213 217 231 245 265 258 260 262 259 260 265 265 266 267 267 261 277 271 280 277 272 275 278
251 229 191 262 152 157 171 149 146 137 143 148 165 165 167 177 171 169 169 245 176 203 179 217 239 234 239 248 244 250 257 258 257 252 254 257 261 264 263 275 258 276 272 279 278 258 290
244 201 191 163 167 147 139 140 142 147 152 176 163 219 188 163 167 166 216 154 160 147 157 196 204 209 242 242 243 244 245 249 253 256 259 267 268 268 273 275 278 279 281 290 264 294 286
198 183 158 157 170 167 144 160 151 164 164 168 167 243 197 159 149 171 148 147 179 193 197 233 194 206 209 216 228 233 238 245 252 260 263 267 270 275 275 280 276 271 289 266 290 298 291
165 167 181 155 158 147 164 152 156 165 154 172 147 144 141 141 142 145 151 197 182 188 196 208 204 200 209 222 234 240 245 249 255 247 267 262 257 273 276 275 282 281 289 289 293 291 287
171 177 165 182 162 184 150 177 247 205 158 149 144 160 167 145 215 206 200 190 190 194 184 180 194 214 221 232 242 251 256 259 267 267 267 271 272 273 273 270 273 285 294 296 300 299 282
244 180 167 173 169 153 210 151 149 152 187 147 221 172 167 161 175 185 186 186 177 168 177 198 213 227 244 255 263 267 265 264 267 264 250 264 273 269 280 272 275 282 287 289 296 288 288
237 182 211 175 189 156 176 151 150 160 178 177 235 179 178 179 190 191 178 166 171 170 180 203 222 244 249 264 262 257 261 267 296 275 278 258 263 265 271 267 264 278 286 300 296 294 290
186 182 180 172 180 162 160 197 188 177 170 183 243 180 182 196 162 163 165 166 173 177 199 213 228 239 250 262 261 289 294 294 295 292 289 274 255 266 261 266 272 280 289 306 298 293 299
182 184 176 175 163 182 186 173 200 190 192 195 194 193 197 165 164 168 171 174 189 192 198 216 229 243 264 278 297 296 297 298 303 299 276 274 268 257 261 264 274 279 288 299 295 297 299
182 183 177 192 182 169 197 195 193 193 204 212 203 180 198 174 174 176 177 187 199 203 213 229 250 268 290 292 296 297 298 309 312 307 304 282 271 274 265 260 272 275 282 290 286 294 300
185 184 192 175 185 198 181 186 197 205 204 207 204 182 176 181 243 183 187 203 213 216 222 236 254 265 289 296 299 308 309 314 316 320 309 297 288 293 277 264 260 280 279 281 286 296 304
186 187 195 191 203 180 185 200 201 200 200 211 199 185 190 189 195 196 203 214 221 233 243 259 268 265 292 302 309 316 315 319 342 327 323 326 308 302 298 281 279 288 285 291 297 304 305
189 193 200 197 185 182 194 210 202 206 209 206 206 197 201 201 205 208 216 224 229 235 257 259 261 270 299 309 311 312 310 317 331 329 329 322 305 302 295 290 289 293 290 296 294 300 302
193 192 187 189 191 192 197 204 206 209 208 212 206 217 213 216 219 217 223 231 238 239 252 252 262 279 296 300 305 302 298 311 316 316 316 320 311 305 311 302 299 301 304 311 308 289 307
195 192 190 190 193 194 200 204 208 210 216 220 219 221 223 224 224 225 229 229 237 243 249 255 264 276 284 282 292 293 294 292 295 308 307 307 308 307 307 304 306 284 308 291 298 305 309
196 199 195 197 196 204 203 208 207 211 214 224 226 224 230 225 226 230 232 235 235 244 244 253 267 275 276 278 281 284 273 292 295 296 300 299 300 298 297 295 302 301 304 302 298 301 304
202 197 200 202 201 204 207 208 208 211 218 220 227 226 231 223 225 229 233 236 238 249 250 254 262 268 272 277 283 285 290 290 293 295 292 301 301 301 299 303 302 303 308 299 300 300 298
202 203 202 204 207 204 206 209 211 212 218 223 226 232 233 228 228 230 233 239 243 253 253 258 264 266 273 277 281 282 289 290 290 291 294 298 302 302 299 301 300 298 303 307 300 304 300
203 206 205 207 209 211 206 212 213 212 215 221 223 230 234 238 233 235 236 240 243 251 263 267 270 272 272 271 275 278 282 288 289 288 288 291 295 299 298 298 299 298 304 307 304 302 303
204 217 210 209 209 213 213 214 215 217 221 225 227 229 233 241 242 238 239 242 248 254 263 268 272 274 275 276 285 285 286 286 286 287 287 290 291 292 292 297 299 299 308 304 304 305 307
218 209 211 213 216 215 218 217 219 222 224 227 232 232 234 241 248 246 236 242 247 256 261 263 267 270 271 275 279 284 288 276 290 288 292 291 286 285 292 296 298 301 305 304 304 306 305
207 223 210 216 219 218 219 224 222 227 227 229 232 236 237 241 247 247 246 245 249 259 263 268 266 274 273 278 281 286 285 285 285 285 295 289 291 291 296 301 301 301 301 304 302 304 301
223 216 227 213 218 224 222 224 227 227 231 234 232 235 237 242 249 246 245 247 253 255 264 270 271 270 274 282 285 289 292 291 290 294 294 297 300 303 301 303 301 299 300 303 303 308 309
221 223 222 227 216 218 224 224 228 230 231 230 234 235 237 241 246 241 244 250 256 261 263 266 271 274 280 276 275 282 286 289 291 288 293 294 297 299 302 303 298 300 304 310 311 310 313
220 226 227 219 230 223 222 226 228 231 235 236 235 237 239 241 240 243 248 251 255 260 263 268 272 272 276 278 282 282 282 283 286 292 298 297 298 298 305 298 304 308 310 310 308 310 308